Regional Weather Roundup
Issued by NWS

Home | Current Version | Previous Version | Text Only | Print | Product List | Glossary On
Versions: 1 2 3 4 5 6 7 8 9 10 11 12 13 14 15 16 17 18 19 20 21 22 23 24 25 26 27 28 29 30 31 32 33 34 35 36 37 38 39 40 41 42 43 44 45 46 47 48 49 50
000
ASUS42 KTBW 251216
RWRFL
FLORIDA REGIONAL WEATHER ROUNDUP
NATIONAL WEATHER SERVICE TAMPA BAY RUSKIN FL
800 AM EDT MON MAY 25 2015

NOTE: "FAIR" INDICATES FEW OR NO CLOUDS BELOW 12,000 FEET WITH NO
SIGNIFICANT WEATHER AND/OR OBSTRUCTIONS TO VISIBILITY.


FLZ001>010-012>015-112-114-115-251300-
PANHANDLE FLORIDA

CITY           SKY/WX    TMP DP  RH WIND       PRES   REMARKS
PENSACOLA      PTSUNNY   78  75  90 SE14      30.12R
PENSACOLA NAS  CLOUDY    81  75  82 SE14      30.11R
MILTON NAS     PTSUNNY   73  72  96 E8        30.13  FOG
CRESTVIEW      PTSUNNY   73  68  84 NE5       30.16S
DUKE FIELD     FAIR      74  69  85 E5        30.14R HAZE
MARY ESTHER    PTSUNNY   80  73  80 SE16G26   30.12
TRI COUNTY     FAIR      73  68  84 VRB3      30.18R
PANAMA CITY    FAIR      74  70  87 NE5       30.15R
TYNDALL AFB    MOSUNNY   77  73  89 E6        30.14R
APALACHICOLA   MOSUNNY   83  73  72 SE13G24   30.16R

STATION/POSITION SKY/WX   TEMP    WIND        PRES    WAVE   SWELL
                          AIR SEA DIR/SP/G            HT/PER HT/PER
                          (F)     (DEG/KT/KT) (MB)    (FT/S) (FT/S)
30.1N   87.6W              80 80  130/ 12/ 16 1018.7R   4/ 7   2/ 7
29.2N   88.2W              78 79  130/ 17/ 21 1018.7S
28.8N   86.0W              80 80  150/ 16/ 17 1019.8R   4/ 6
PANAMA CITY BEAC           76 80  100/  8/ 10 1020.4R
CAPE SAN BLAS    NOT AVBL
TOWER C                    79     130/ 17/ 18 1020.7R
28.5N   84.5W              80 80  130/ 17/ 19 1020.1R   5/ 6

$$
FLZ011-016>038-118-127-128-134-139-239-251300-
NORTH FLORIDA

CITY           SKY/WX    TMP DP  RH WIND       PRES   REMARKS
MARIANNA       MOSUNNY   74  71  91 E6        30.17R
TALLAHASSEE    PTSUNNY   75  70  84 E14       30.18S
PERRY          CLOUDY    73  72  96 E7        30.21S FOG
CROSS CITY       N/A     74  71  91 VRB5      30.20R
LAKE CITY      CLOUDY    72  72 100 E3        30.21R FOG
GAINESVILLE    CLOUDY    72  71  97 E6        30.21R
MAYPORT NAS    CLOUDY    75  74  96 E5        30.22S
JACKSONVILLE   PTSUNNY   73  72  96 E6        30.22R
JAX NAS        MOSUNNY   80  73  79 SE7       30.23R
JAX CRAIG      CLOUDY    76  73  91 SE3       30.22R
JAX CECIL      MOSUNNY   73  73 100 CALM      30.22R
FERNANDINA BEA CLOUDY    81  77  89 E7        30.22R
ST AUGUSTINE   SUNNY     79  75  87 SE9       30.23R

STATION/POSITION SKY/WX   TEMP    WIND        PRES    WAVE   SWELL
                          AIR SEA DIR/SP/G            HT/PER HT/PER
                          (F)     (DEG/KT/KT) (MB)    (FT/S) (FT/S)
SHELL POINT                78     120/  9/ 14   N/A
KEATON BEACH               72      80/  9/ 11 1022.5R
CEDAR KEY                  76     120/ 12/ 13 1022.7R
FERNANDINA                 75 79   80/  2/  4 1022.6R
30.7N   81.3W                 77                N/A     4/ 8
MAYPORT                    76 78  200/  5/  7 1023.1R
31.4N   80.9W              76 75  110/ 10/ 10 1024.5R   5/ 9   5/ 9
ST AUGUSTINE               77 77  120/  6/  7 1024.0R

$$
FLZ040-043>046-052-053-057-058-063-144-251300-
INTERIOR CENTRAL FLORIDA

CITY           SKY/WX    TMP DP  RH WIND       PRES   REMARKS
THE VILLAGES     N/A     73  73 100 NE5       30.11R
LEESBURG       SUNNY     76  71  85 E5        30.21R
SANFORD        SUNNY     77  72  84 E7        30.20R
ORLANDO EXEC   SUNNY     76  71  85 E6        30.20R
ORLANDO INTL   MOSUNNY   77  72  84 E8        30.19R
KISSIMMEE      SUNNY     75  73  94 CALM      30.20R
WINTER HAVEN   SUNNY     78  72  81 E8        30.20R
LAKELAND       SUNNY     75  72  88 E6        30.19R
BARTOW         SUNNY     73  73 100 E6        30.19S
OKEECHOBEE     SUNNY     72  72 100 CALM      30.18R

$$
FLZ041-047-054-059-064-141-147-251300-
EAST CENTRAL FLORIDA

CITY           SKY/WX    TMP DP  RH WIND       PRES   REMARKS
ORMOND BEACH   MOSUNNY   77  73  88 CALM      30.21R
DAYTONA BEACH  PTSUNNY   77  72  84 CALM      30.21R
DELAND           N/A     73  72  94 CALM      30.22R
NEW SMYRNA BEA SUNNY     81  72  74 E8        30.22R
JFK SPACE CTR  MOSUNNY   79  72  79 SE6       30.19R
TITUSVILLE     MOSUNNY   79  75  89 E7        30.20R
CAPE CANAVERAL SUNNY     79  72  79 SE10      30.19R
PATRICK AFB    SUNNY     81  73  76 SE12      30.19R
MELBOURNE      MOSUNNY   80  72  76 E10       30.19R
VERO BEACH     LGT RAIN  80  73  79 E9        30.19R
FT PIERCE      PTSUNNY   80  74  81 E9        30.18R
STUART         MOSUNNY   81  72  74 SE9       30.18R

STATION/POSITION SKY/WX   TEMP    WIND        PRES    WAVE   SWELL
                          AIR SEA DIR/SP/G            HT/PER HT/PER
                          (F)     (DEG/KT/KT) (MB)    (FT/S) (FT/S)
28.5N   80.2W              80 79  120/ 12/ 14 1022.6R
28.9N   78.5W              78 80   80/ 12/ 12 1023.4R
TRIDENT PIER               78 82  110/  5/  9 1022.6R
28.4N   80.5W                 80                N/A     3/ 8
27.5N   80.2W                 82                N/A     4/ 8

$$
FLZ050-056-061-142-242-148-248-149-249-151-251-155-255-
160-260-251300-
WEST CENTRAL FLORIDA

CITY           SKY/WX    TMP DP  RH WIND       PRES   REMARKS
CRYSTAL RIVER  FAIR      73  72  94 E5        30.19S FOG
INVERNESS      FAIR      73  72  94 CALM      30.20S
BROOKSVILLE    SUNNY     74  70  87 E6        30.19R
CLEARWATER     MOSUNNY   77  73  87 E8        30.17R
TAMPA INTL     MOSUNNY   77  70  79 VRB5      30.18R
TAMPA EXEC     SUNNY     75  72  88 E3        30.19R
PLANT CITY     SUNNY     77  73  88 E6        30.20S
MACDILL AFB    SUNNY     77  74  91 E7        30.17R
PETER O KNIGHT SUNNY     79  72  78 E8        30.18R
ST PETERSBURG  SUNNY     78  72  81 SE13      30.16R
SARASOTA       SUNNY     75  71  87 E10       30.15R
VENICE         FAIR      75  72  88 E9        30.16S

STATION/POSITION SKY/WX   TEMP    WIND        PRES    WAVE   SWELL
                          AIR SEA DIR/SP/G            HT/PER HT/PER
                          (F)     (DEG/KT/KT) (MB)    (FT/S) (FT/S)
CEDAR KEY                  76     120/ 12/ 13 1022.7R
28.5N   84.5W              80 80  130/ 17/ 19 1020.1R   5/ 6
27.3N   84.2W                 81                N/A     4/ 5
CLEARWATER BEACH           77 83  100/  7/ 12 1021.3R
MIDDLE TAMPA BAY           75     120/  9/ 13 1021.2R
VENICE                     75 84   90/ 10/ 12 1020.8R

$$
FLZ066-069-070-075>078-162-262-165-265-251300-
SOUTHWEST FLORIDA AND KEYS

CITY           SKY/WX    TMP DP  RH WIND       PRES   REMARKS
PUNTA GORDA    SUNNY     73  72  96 E7        30.18R
FT MYERS       MOSUNNY   76  73  91 E8        30.15R
SOUTHWEST INTL SUNNY     75  72  90 E9        30.16R
NAPLES         MOSUNNY   78  73  84 E8        30.14R
MARCO ISLAND     N/A     75  70  83 E8        30.14R
IMMOKALEE      SUNNY    N/A N/A N/A CALM      30.17R
MARATHON       MOSUNNY   82  76  81 E9G17     30.11R
KEY WEST NAS   MOSUNNY   82  75  79 E16       30.11R
KEY WEST INTL  MOSUNNY   82  74  76 E15       30.11R

STATION/POSITION SKY/WX   TEMP    WIND        PRES    WAVE   SWELL
                          AIR SEA DIR/SP/G            HT/PER HT/PER
                          (F)     (DEG/KT/KT) (MB)    (FT/S) (FT/S)
VENICE                     75 84   90/ 10/ 12 1020.8R
NAPLES                     75 84   50/  4/  7 1019.9R
26.0N   85.6W              81 82  120/ 16/ 17 1018.3R   3/ 5
DRY TORTUGAS               81     120/ 14/ 16 1018.6R
NW FL BAY                  83     110/ 14/ 17 1019.6
SAND KEY                   78     170/ 16/ 23 1019.5R
SOMBRERO KEY               82      90/ 16/ 18 1020.4R
LONG KEY                   82 84  110/ 14/ 16 1020.8R
MOLASSES REEF              81 83  100/ 18/ 19 1020.0R

$$
FLZ067-068-071>074-168-172>174-251300-
SOUTHEAST FLORIDA

CITY           SKY/WX    TMP DP  RH WIND       PRES   REMARKS
W PALM BEACH   MOSUNNY   82  72  71 SE13      30.17R
FT LAUDER-EXEC MOSUNNY   81  74  79 E14       30.15R
FT LAUDERDALE  PTSUNNY   82  75  79 E16       30.15R
POMPANO BEACH  MOSUNNY   82  73  74 E12       30.16R
PEMBROKE PINES MOSUNNY   82  72  71 E14       30.16R
OPA LOCKA      MOSUNNY   82  73  74 SE12      30.15R
MIAMI          MOSUNNY   82  72  71 E10       30.15R
WEST KENDALL   MOSUNNY   83  73  72 E12       30.14R
HOMESTEAD      SUNNY     82  73  74 E12       30.14R

STATION/POSITION SKY/WX   TEMP    WIND        PRES    WAVE   SWELL
                          AIR SEA DIR/SP/G            HT/PER HT/PER
                          (F)     (DEG/KT/KT) (MB)    (FT/S) (FT/S)
PORT EVERGLADES            81      90/  8/ 12 1021.1R
VIRGINIA KEY               81 83  110/ 12/ 15 1019.8R
LAKE WORTH                 80 82  110/ 12/ 14 1020.5R
SETTLEMENT POINT           80     110/ 13/ 14 1022.5R

$$




USA.gov is the U.S. government's official web portal to all federal, state and local government web resources and services.